| time (UTC) | temp C | wind direction | speed KPH | gust KPH | rain 1hr cm | rain 24hr cm | rain mn cm | humidity % | barometer mb |
| 20260510035604 | 10 | 228 | 0.0 | 4.8 | 0.00 | 0.33 | 0.33 | 99 | 1012.6 |
| 20260510035103 | 10 | 225 | 1.6 | 3.2 | 0.00 | 0.33 | 0.33 | 99 | 1012.6 |
| 20260510034602 | 11 | 233 | 1.6 | 3.2 | 0.00 | 0.33 | 0.33 | 99 | 1012.7 |
| 20260510034058 | 11 | 225 | 3.2 | 3.2 | 0.00 | 0.33 | 0.33 | 99 | 1012.6 |
| 20260510033555 | 11 | 220 | 0.0 | 1.6 | 0.00 | 0.33 | 0.33 | 99 | 1012.5 |
| 20260510033052 | 11 | 231 | 1.6 | 3.2 | 0.00 | 0.33 | 0.33 | 99 | 1012.7 |
| 20260510032549 | 10 | 232 | 0.0 | 0.0 | 0.00 | 0.33 | 0.33 | 99 | 1012.8 |
| 20260510032044 | 10 | 232 | 0.0 | 0.0 | 0.00 | 0.33 | 0.33 | 99 | 1012.8 |
| 20260510031539 | 11 | 232 | 0.0 | 0.0 | 0.00 | 0.33 | 0.33 | 99 | 1012.8 |
| 20260510031035 | 10 | 233 | 0.0 | 0.0 | 0.00 | 0.33 | 0.33 | 98 | 1012.7 |
| 20260510030530 | 11 | 233 | 0.0 | 0.0 | 0.00 | 0.33 | 0.33 | 98 | 1012.7 |
| 20260510030028 | 11 | 233 | 0.0 | 0.0 | 0.00 | 0.33 | 0.33 | 98 | 1012.8 |
| 20260510025525 | 11 | 233 | 0.0 | 0.0 | 0.00 | 0.33 | 0.33 | 98 | 1012.7 |
| 20260510025023 | 11 | 233 | 0.0 | 0.0 | 0.00 | 0.33 | 0.33 | 97 | 1012.8 |
| 20260510024519 | 11 | 233 | 0.0 | 0.0 | 0.00 | 0.33 | 0.33 | 97 | 1012.9 |
| 20260510024015 | 11 | 233 | 0.0 | 3.2 | 0.00 | 0.33 | 0.33 | 97 | 1012.6 |
| 20260510023511 | 11 | 234 | 1.6 | 3.2 | 0.00 | 0.33 | 0.33 | 97 | 1012.5 |
| 20260510023009 | 11 | 230 | 1.6 | 3.2 | 0.00 | 0.33 | 0.33 | 97 | 1012.6 |
| 20260510022508 | 11 | 225 | 0.0 | 0.0 | 0.00 | 0.33 | 0.33 | 97 | 1012.8 |
| 20260510022008 | 11 | 225 | 0.0 | 1.6 | 0.00 | 0.33 | 0.33 | 97 | 1012.7 |
| 20260510021505 | 11 | 225 | 1.6 | 3.2 | 0.00 | 0.33 | 0.33 | 97 | 1012.6 |
| 20260510021002 | 11 | 204 | 1.6 | 3.2 | 0.00 | 0.33 | 0.33 | 97 | 1012.5 |
| 20260510020456 | 11 | 156 | 0.0 | 0.0 | 0.00 | 0.33 | 0.33 | 98 | 1012.5 |
| 20260510015952 | 11 | 156 | 0.0 | 0.0 | 0.00 | 0.33 | 0.33 | 96 | 1012.5 |
| 20260510015448 | 11 | 156 | 0.0 | 0.0 | 0.00 | 0.33 | 0.33 | 96 | 1012.4 |
| 20260510014943 | 11 | 156 | 0.0 | 0.0 | 0.00 | 0.33 | 0.33 | 95 | 1012.2 |
| 20260510014441 | 11 | 156 | 0.0 | 0.0 | 0.00 | 0.33 | 0.33 | 94 | 1012.1 |
| 20260510013938 | 12 | 156 | 0.0 | 0.0 | 0.00 | 0.33 | 0.33 | 94 | 1012.1 |
| 20260510013432 | 12 | 156 | 0.0 | 0.0 | 0.00 | 0.33 | 0.33 | 90 | 1012.0 |
| 20260510012928 | 13 | 156 | 0.0 | 0.0 | 0.00 | 0.33 | 0.33 | 91 | 1011.7 |
| 20260510012423 | 12 | 157 | 0.0 | 0.0 | 0.00 | 0.33 | 0.33 | 92 | 1011.8 |
| 20260510011918 | 12 | 157 | 0.0 | 0.0 | 0.00 | 0.33 | 0.33 | 92 | 1011.6 |
| 20260510011413 | 12 | 157 | 0.0 | 0.0 | 0.00 | 0.33 | 0.33 | 93 | 1011.5 |
| 20260510010910 | 12 | 157 | 0.0 | 0.0 | 0.00 | 0.33 | 0.33 | 91 | 1011.5 |
| 20260510010407 | 13 | 157 | 0.0 | 0.0 | 0.00 | 0.33 | 0.33 | 91 | 1011.5 |
| 20260510005904 | 13 | 159 | 0.0 | 0.0 | 0.00 | 0.33 | 0.33 | 90 | 1011.5 |
| 20260510005400 | 13 | 159 | 0.0 | 0.0 | 0.00 | 0.33 | 0.33 | 90 | 1011.2 |
| 20260510004858 | 13 | 159 | 0.0 | 0.0 | 0.00 | 0.33 | 0.33 | 88 | 1011.1 |
| 20260510004355 | 14 | 159 | 0.0 | 0.0 | 0.00 | 0.33 | 0.33 | 87 | 1011.0 |
| 20260510003853 | 14 | 159 | 0.0 | 0.0 | 0.00 | 0.33 | 0.33 | 86 | 1010.9 |
| 20260510003349 | 14 | 159 | 0.0 | 0.0 | 0.00 | 0.33 | 0.33 | 84 | 1010.9 |
| 20260510002848 | 16 | 161 | 0.0 | 0.0 | 0.00 | 0.33 | 0.33 | 81 | 1010.8 |
| 20260510002346 | 15 | 167 | 1.6 | 1.6 | 0.00 | 0.33 | 0.33 | 80 | 1010.9 |
| 20260510001842 | 15 | 165 | 0.0 | 0.0 | 0.00 | 0.33 | 0.33 | 80 | 1010.9 |
| 20260510001340 | 16 | 165 | 0.0 | 0.0 | 0.00 | 0.33 | 0.33 | 79 | 1010.7 |
| 20260510000836 | 16 | 150 | 0.0 | 1.6 | 0.00 | 0.33 | 0.33 | 78 | 1010.8 |
| 20260510000334 | 17 | 128 | 1.6 | 3.2 | 0.00 | 0.33 | 0.33 | 74 | 1010.6 |
| 20260509235830 | 17 | 137 | 1.6 | 1.6 | 0.00 | 0.33 | 0.33 | 72 | 1010.7 |
| 20260509235327 | 18 | 157 | 1.6 | 1.6 | 0.00 | 0.33 | 0.33 | 73 | 1010.8 |
| 20260509234822 | 18 | 203 | 1.6 | 1.6 | 0.00 | 0.33 | 0.33 | 71 | 1010.8 |
| 20260509234320 | 18 | 187 | 1.6 | 3.2 | 0.00 | 0.33 | 0.33 | 71 | 1010.8 |
| 20260509233818 | 19 | 221 | 1.6 | 3.2 | 0.00 | 0.33 | 0.33 | 65 | 1010.7 |
| 20260509233315 | 19 | 195 | 1.6 | 3.2 | 0.00 | 0.33 | 0.33 | 66 | 1010.8 |
| 20260509232811 | 20 | 173 | 1.6 | 4.8 | 0.00 | 0.33 | 0.33 | 66 | 1010.9 |
| 20260509232308 | 20 | 141 | 1.6 | 1.6 | 0.00 | 0.33 | 0.33 | 62 | 1010.8 |
| 20260509231804 | 20 | 234 | 1.6 | 1.6 | 0.00 | 0.33 | 0.33 | 65 | 1010.8 |
| 20260509231301 | 20 | 125 | 0.0 | 3.2 | 0.00 | 0.33 | 0.33 | 64 | 1010.7 |
| 20260509230759 | 21 | 166 | 0.0 | 3.2 | 0.00 | 0.33 | 0.33 | 60 | 1010.8 |
| 20260509230256 | 21 | 186 | 0.0 | 1.6 | 0.00 | 0.33 | 0.33 | 57 | 1010.9 |
| 20260509225751 | 21 | 131 | 0.0 | 0.0 | 0.00 | 0.33 | 0.33 | 59 | 1010.8 |
| 20260509225247 | 20 | 131 | 1.6 | 3.2 | 0.00 | 0.33 | 0.33 | 63 | 1010.7 |
| 20260509224743 | 21 | 120 | 0.0 | 1.6 | 0.00 | 0.33 | 0.33 | 64 | 1010.8 |
| 20260509224241 | 21 | 215 | 1.6 | 3.2 | 0.00 | 0.33 | 0.33 | 64 | 1010.8 |
| 20260509223737 | 20 | 100 | 1.6 | 3.2 | 0.00 | 0.33 | 0.33 | 62 | 1010.8 |
| 20260509223235 | 21 | 236 | 0.0 | 4.8 | 0.00 | 0.33 | 0.33 | 61 | 1010.9 |
| 20260509222731 | 21 | 285 | 1.6 | 3.2 | 0.00 | 0.33 | 0.33 | 61 | 1011.0 |
| 20260509222226 | 21 | 206 | 3.2 | 4.8 | 0.00 | 0.33 | 0.33 | 63 | 1011.0 |
| 20260509221722 | 21 | 22 | 0.0 | 1.6 | 0.00 | 0.33 | 0.33 | 64 | 1010.9 |
| 20260509221219 | 21 | 13 | 0.0 | 0.0 | 0.00 | 0.33 | 0.33 | 63 | 1011.2 |
| 20260509220715 | 20 | 100 | 3.2 | 3.2 | 0.00 | 0.33 | 0.33 | 64 | 1010.8 |
| 20260509220212 | 20 | 80 | 1.6 | 6.4 | 0.00 | 0.33 | 0.33 | 64 | 1011.0 |
| 20260509215707 | 19 | 80 | 1.6 | 3.2 | 0.00 | 0.33 | 0.33 | 66 | 1010.9 |
| 20260509215204 | 20 | 129 | 3.2 | 4.8 | 0.00 | 0.33 | 0.33 | 66 | 1011.2 |
| 20260509214701 | 21 | 256 | 1.6 | 1.6 | 0.00 | 0.33 | 0.33 | 63 | 1011.1 |
| 20260509214158 | 20 | 257 | 0.0 | 4.8 | 0.00 | 0.33 | 0.33 | 65 | 1011.2 |
| 20260509213655 | 20 | 238 | 3.2 | 4.8 | 0.00 | 0.33 | 0.33 | 63 | 1011.0 |
| 20260509213150 | 20 | 210 | 1.6 | 4.8 | 0.00 | 0.33 | 0.33 | 64 | 1011.1 |
| 20260509212648 | 19 | 171 | 0.0 | 3.2 | 0.00 | 0.33 | 0.33 | 67 | 1010.9 |
| 20260509212144 | 19 | 32 | 0.0 | 1.6 | 0.00 | 0.33 | 0.33 | 70 | 1010.9 |
| 20260509211640 | 19 | 347 | 4.8 | 6.4 | 0.00 | 0.33 | 0.33 | 68 | 1011.1 |
| 20260509211137 | 19 | 95 | 3.2 | 9.7 | 0.00 | 0.33 | 0.33 | 70 | 1011.1 |
| 20260509210635 | 18 | 49 | 3.2 | 3.2 | 0.00 | 0.33 | 0.33 | 78 | 1011.1 |
| 20260509210132 | 17 | 38 | 1.6 | 6.4 | 0.00 | 0.33 | 0.33 | 76 | 1011.3 |
| 20260509205626 | 17 | 53 | 3.2 | 6.4 | 0.00 | 0.33 | 0.33 | 76 | 1011.2 |
| 20260509205121 | 17 | 130 | 1.6 | 6.4 | 0.00 | 0.33 | 0.33 | 75 | 1011.5 |
| 20260509204617 | 17 | 9 | 3.2 | 4.8 | 0.00 | 0.33 | 0.33 | 70 | 1011.6 |
| 20260509204114 | 18 | 23 | 1.6 | 4.8 | 0.00 | 0.33 | 0.33 | 68 | 1011.6 |
| 20260509203610 | 19 | 347 | 3.2 | 4.8 | 0.00 | 0.33 | 0.33 | 64 | 1011.5 |
| 20260509203109 | 19 | 133 | 3.2 | 4.8 | 0.00 | 0.33 | 0.33 | 66 | 1011.6 |
| 20260509202609 | 18 | 108 | 0.0 | 4.8 | 0.00 | 0.33 | 0.33 | 70 | 1011.6 |
| 20260509202104 | 19 | 120 | 4.8 | 6.4 | 0.00 | 0.33 | 0.33 | 65 | 1011.6 |
| 20260509201604 | 19 | 339 | 3.2 | 6.4 | 0.00 | 0.33 | 0.33 | 66 | 1011.7 |
| 20260509201103 | 18 | 131 | 0.0 | 3.2 | 0.00 | 0.33 | 0.33 | 71 | 1011.8 |
| 20260509200603 | 18 | 116 | 3.2 | 6.4 | 0.00 | 0.33 | 0.33 | 71 | 1011.8 |
| 20260509200059 | 17 | 39 | 3.2 | 4.8 | 0.00 | 0.33 | 0.33 | 74 | 1011.8 |
| 20260509195554 | 17 | 139 | 3.2 | 4.8 | 0.00 | 0.33 | 0.33 | 75 | 1011.9 |
| 20260509195049 | 17 | 164 | 6.4 | 6.4 | 0.00 | 0.33 | 0.33 | 75 | 1011.9 |
| 20260509194549 | 17 | 167 | 0.0 | 3.2 | 0.00 | 0.33 | 0.33 | 78 | 1011.9 |
| 20260509194047 | 16 | 144 | 0.0 | 3.2 | 0.00 | 0.33 | 0.33 | 79 | 1011.9 |
| 20260509193542 | 17 | 192 | 0.0 | 4.8 | 0.00 | 0.33 | 0.33 | 76 | 1012.0 |
| 20260509193039 | 17 | 116 | 4.8 | 4.8 | 0.00 | 0.33 | 0.33 | 77 | 1011.9 |
| 20260509192536 | 17 | 153 | 0.0 | 3.2 | 0.00 | 0.33 | 0.33 | 76 | 1012.0 |
| 20260509192031 | 17 | 124 | 3.2 | 4.8 | 0.00 | 0.33 | 0.33 | 78 | 1011.8 |
| 20260509191531 | 17 | 218 | 1.6 | 3.2 | 0.00 | 0.33 | 0.33 | 81 | 1012.0 |
| 20260509191027 | 16 | 133 | 1.6 | 3.2 | 0.00 | 0.33 | 0.33 | 83 | 1011.8 |
| 20260509190524 | 16 | 222 | 1.6 | 3.2 | 0.00 | 0.33 | 0.33 | 81 | 1012.0 |
| 20260509190022 | 16 | 108 | 3.2 | 4.8 | 0.00 | 0.33 | 0.33 | 85 | 1011.9 |
| 20260509185519 | 16 | 87 | 0.0 | 3.2 | 0.00 | 0.33 | 0.33 | 85 | 1012.0 |
| 20260509185015 | 16 | 87 | 0.0 | 3.2 | 0.00 | 0.33 | 0.33 | 86 | 1012.2 |
| 20260509184514 | 16 | 56 | 3.2 | 4.8 | 0.00 | 0.33 | 0.33 | 85 | 1012.1 |
| 20260509184010 | 16 | 128 | 1.6 | 1.6 | 0.00 | 0.33 | 0.33 | 84 | 1012.0 |
| 20260509183505 | 16 | 16 | 1.6 | 3.2 | 0.00 | 0.33 | 0.33 | 83 | 1012.3 |
| 20260509183001 | 15 | 124 | 1.6 | 4.8 | 0.00 | 0.33 | 0.33 | 84 | 1012.3 |
| 20260509182457 | 16 | 77 | 3.2 | 6.4 | 0.00 | 0.33 | 0.33 | 83 | 1012.2 |
| 20260509181954 | 16 | 71 | 3.2 | 9.7 | 0.00 | 0.33 | 0.33 | 84 | 1011.9 |
| 20260509181453 | 16 | 211 | 4.8 | 6.4 | 0.00 | 0.33 | 0.33 | 87 | 1012.2 |
| 20260509180950 | 15 | 118 | 6.4 | 11.3 | 0.00 | 0.33 | 0.33 | 90 | 1012.1 |
| 20260509180445 | 15 | 124 | 4.8 | 4.8 | 0.00 | 0.33 | 0.33 | 89 | 1012.3 |
| 20260509175942 | 15 | 137 | 6.4 | 6.4 | 0.00 | 0.33 | 0.33 | 89 | 1012.5 |
| 20260509175439 | 14 | 109 | 0.0 | 3.2 | 0.00 | 0.33 | 0.33 | 92 | 1012.5 |
| 20260509174935 | 14 | 157 | 1.6 | 3.2 | 0.00 | 0.33 | 0.33 | 91 | 1012.8 |
| 20260509174431 | 14 | 157 | 0.0 | 3.2 | 0.00 | 0.33 | 0.33 | 90 | 1013.0 |
| 20260509173927 | 15 | 154 | 0.0 | 1.6 | 0.00 | 0.33 | 0.33 | 90 | 1012.7 |
| 20260509173426 | 14 | 129 | 1.6 | 3.2 | 0.00 | 0.33 | 0.33 | 93 | 1012.5 |
| 20260509172923 | 14 | 226 | 4.8 | 6.4 | 0.00 | 0.33 | 0.33 | 91 | 1012.6 |
| 20260509172420 | 15 | 164 | 1.6 | 1.6 | 0.00 | 0.33 | 0.33 | 91 | 1012.6 |
| 20260509171916 | 15 | 231 | 3.2 | 3.2 | 0.00 | 0.33 | 0.33 | 90 | 1012.8 |
| 20260509171412 | 14 | 236 | 3.2 | 3.2 | 0.00 | 0.33 | 0.33 | 90 | 1012.9 |
| 20260509170908 | 14 | 224 | 1.6 | 3.2 | 0.00 | 0.33 | 0.33 | 91 | 1013.2 |
| 20260509170404 | 14 | 219 | 3.2 | 3.2 | 0.00 | 0.33 | 0.33 | 91 | 1013.2 |
| 20260509165900 | 14 | 227 | 1.6 | 3.2 | 0.00 | 0.33 | 0.33 | 89 | 1013.2 |
| 20260509165354 | 14 | 226 | 0.0 | 3.2 | 0.00 | 0.33 | 0.33 | 87 | 1013.3 |
| 20260509164850 | 14 | 212 | 0.0 | 1.6 | 0.00 | 0.33 | 0.33 | 90 | 1013.5 |
| 20260509164346 | 14 | 221 | 1.6 | 3.2 | 0.00 | 0.33 | 0.33 | 92 | 1013.5 |
| 20260509163843 | 13 | 37 | 1.6 | 3.2 | 0.00 | 0.33 | 0.33 | 93 | 1013.7 |
| 20260509163340 | 13 | 106 | 3.2 | 3.2 | 0.00 | 0.33 | 0.33 | 91 | 1013.4 |
| 20260509162839 | 13 | 173 | 0.0 | 1.6 | 0.00 | 0.33 | 0.33 | 91 | 1013.5 |
| 20260509162337 | 13 | 213 | 3.2 | 3.2 | 0.00 | 0.33 | 0.33 | 90 | 1013.6 |
| 20260509161834 | 13 | 289 | 0.0 | 0.0 | 0.00 | 0.33 | 0.33 | 88 | 1013.6 |
| 20260509161330 | 13 | 226 | 1.6 | 3.2 | 0.00 | 0.33 | 0.33 | 89 | 1013.8 |
| 20260509160827 | 13 | 216 | 1.6 | 3.2 | 0.00 | 0.33 | 0.33 | 91 | 1013.7 |
| 20260509160323 | 12 | 345 | 0.0 | 0.0 | 0.00 | 0.33 | 0.33 | 91 | 1013.6 |
| 20260509155818 | 12 | 345 | 1.6 | 1.6 | 0.00 | 0.33 | 0.33 | 90 | 1013.7 |
| 20260509155314 | 12 | 335 | 0.0 | 0.0 | 0.00 | 0.33 | 0.33 | 90 | 1013.7 |
| 20260509154810 | 12 | 334 | 1.6 | 3.2 | 0.00 | 0.33 | 0.33 | 90 | 1013.7 |
| 20260509154307 | 12 | 334 | 0.0 | 1.6 | 0.00 | 0.33 | 0.33 | 90 | 1013.7 |
| 20260509153804 | 12 | 329 | 1.6 | 4.8 | 0.00 | 0.33 | 0.33 | 91 | 1013.6 |
| 20260509153300 | 12 | 323 | 1.6 | 3.2 | 0.00 | 0.33 | 0.33 | 92 | 1013.5 |
| 20260509152757 | 12 | 333 | 3.2 | 4.8 | 0.00 | 0.33 | 0.33 | 92 | 1013.6 |
| 20260509152253 | 12 | 239 | 0.0 | 0.0 | 0.00 | 0.33 | 0.33 | 92 | 1013.4 |
| 20260509151751 | 12 | 314 | 0.0 | 3.2 | 0.00 | 0.33 | 0.33 | 94 | 1013.6 |
| 20260509151247 | 12 | 156 | 0.0 | 1.6 | 0.00 | 0.33 | 0.33 | 93 | 1013.6 |
| 20260509150745 | 12 | 161 | 0.0 | 1.6 | 0.00 | 0.33 | 0.33 | 93 | 1013.5 |
| 20260509150244 | 12 | 229 | 1.6 | 4.8 | 0.00 | 0.33 | 0.33 | 95 | 1013.4 |
| 20260509145740 | 12 | 241 | 4.8 | 6.4 | 0.00 | 0.33 | 0.33 | 95 | 1013.5 |
| 20260509145234 | 11 | 234 | 0.0 | 1.6 | 0.00 | 0.33 | 0.33 | 96 | 1013.5 |
| 20260509144732 | 11 | 224 | 3.2 | 4.8 | 0.00 | 0.33 | 0.33 | 95 | 1013.6 |
| 20260509144228 | 11 | 229 | 3.2 | 4.8 | 0.00 | 0.33 | 0.33 | 96 | 1013.6 |
| 20260509143725 | 10 | 122 | 0.0 | 0.0 | 0.00 | 0.33 | 0.33 | 97 | 1013.5 |
| 20260509143223 | 10 | 123 | 0.0 | 0.0 | 0.00 | 0.33 | 0.33 | 97 | 1013.7 |
| 20260509142718 | 10 | 122 | 0.0 | 1.6 | 0.00 | 0.33 | 0.33 | 98 | 1013.6 |
| 20260509142215 | 10 | 138 | 0.0 | 3.2 | 0.00 | 0.33 | 0.33 | 98 | 1013.8 |
| 20260509141710 | 10 | 95 | 0.0 | 1.6 | 0.00 | 0.33 | 0.33 | 98 | 1013.9 |
| 20260509141208 | 10 | 72 | 0.0 | 1.6 | 0.18 | 0.33 | 0.33 | 98 | 1013.8 |
| 20260509140704 | 10 | 76 | 1.6 | 3.2 | 0.18 | 0.33 | 0.33 | 98 | 1014.0 |
| 20260509140202 | 10 | 190 | 0.0 | 0.0 | 0.00 | 0.30 | 0.30 | 98 | 1014.0 |
| 20260509135659 | 10 | 189 | 0.0 | 0.0 | 0.13 | 0.30 | 0.30 | 98 | 1013.8 |
| 20260509135157 | 10 | 182 | 0.0 | 0.0 | 0.13 | 0.30 | 0.30 | 98 | 1013.7 |
| 20260509134653 | 10 | 182 | 0.0 | 1.6 | 0.00 | 0.28 | 0.28 | 98 | 1013.8 |
| 20260509134151 | 10 | 124 | 0.0 | 0.0 | 0.18 | 0.28 | 0.28 | 98 | 1013.7 |
| 20260509133648 | 9 | 121 | 0.0 | 0.0 | 0.18 | 0.28 | 0.28 | 98 | 1013.5 |
| 20260509133145 | 9 | 121 | 1.6 | 1.6 | 0.00 | 0.25 | 0.25 | 98 | 1013.3 |
| 20260509132643 | 9 | 31 | 0.0 | 0.0 | 0.00 | 0.25 | 0.25 | 98 | 1013.4 |
| 20260509132142 | 9 | 30 | 0.0 | 0.0 | 0.18 | 0.25 | 0.25 | 98 | 1013.6 |
| 20260509131637 | 9 | 21 | 0.0 | 0.0 | 0.13 | 0.23 | 0.23 | 98 | 1013.5 |
| 20260509131135 | 10 | 18 | 0.0 | 0.0 | 0.13 | 0.23 | 0.23 | 98 | 1013.5 |
| 20260509130630 | 10 | 17 | 0.0 | 0.0 | 0.18 | 0.20 | 0.20 | 98 | 1013.5 |
| 20260509130127 | 10 | 16 | 0.0 | 0.0 | 0.18 | 0.20 | 0.20 | 98 | 1013.7 |
| 20260509125623 | 10 | 16 | 0.0 | 0.0 | 0.13 | 0.18 | 0.18 | 98 | 1013.6 |
| 20260509125120 | 10 | 16 | 0.0 | 0.0 | 0.30 | 0.18 | 0.18 | 98 | 1013.6 |
| 20260509124617 | 10 | 16 | 0.0 | 0.0 | 0.18 | 0.15 | 0.15 | 97 | 1013.8 |
| 20260509124114 | 10 | 11 | 0.0 | 0.0 | 0.00 | 0.13 | 0.13 | 97 | 1013.8 |
| 20260509123612 | 10 | 11 | 1.6 | 3.2 | 0.13 | 0.13 | 0.13 | 97 | 1013.7 |
| 20260509123108 | 10 | 255 | 0.0 | 0.0 | 0.00 | 0.10 | 0.10 | 97 | 1013.7 |
| 20260509122604 | 10 | 243 | 0.0 | 0.0 | 0.18 | 0.10 | 0.10 | 97 | 1013.6 |
| 20260509122101 | 10 | 243 | 0.0 | 0.0 | 0.18 | 0.10 | 0.10 | 96 | 1013.6 |
| 20260509121558 | 10 | 243 | 0.0 | 0.0 | 0.00 | 0.08 | 0.08 | 97 | 1013.6 |
| 20260509121056 | 10 | 270 | 0.0 | 0.0 | 0.13 | 0.08 | 0.08 | 96 | 1013.6 |
| 20260509120554 | 10 | 272 | 0.0 | 0.0 | 0.13 | 0.08 | 0.08 | 96 | 1014.0 |
| 20260509120052 | 10 | 272 | 0.0 | 0.0 | 0.18 | 0.05 | 0.05 | 96 | 1013.8 |
| 20260509115548 | 9 | 280 | 0.0 | 0.0 | 0.18 | 0.05 | 0.05 | 95 | 1013.9 |
| 20260509115046 | 9 | 286 | 0.0 | 0.0 | 0.00 | 0.03 | 0.03 | 95 | 1013.9 |
| 20260509114544 | 9 | 285 | 0.0 | 1.6 | 0.13 | 0.03 | 0.03 | 95 | 1014.1 |
| 20260509114043 | 9 | 232 | 4.8 | 4.8 | 0.13 | 0.03 | 0.03 | 95 | 1013.8 |
| 20260509113541 | 9 | 24 | 1.6 | 4.8 | 0.00 | 0.00 | 0.00 | 93 | 1014.1 |
| 20260509113038 | 9 | 199 | 0.0 | 0.0 | 0.00 | 0.00 | 0.00 | 93 | 1013.9 |
| 20260509112534 | 10 | 268 | 0.0 | 0.0 | 0.00 | 0.00 | 0.00 | 92 | 1014.0 |
| 20260509112031 | 10 | 233 | 3.2 | 4.8 | 0.00 | 0.00 | 0.00 | 91 | 1013.9 |
| 20260509111528 | 9 | 225 | 0.0 | 1.6 | 0.00 | 0.00 | 0.00 | 91 | 1013.8 |
| 20260509111025 | 10 | 228 | 1.6 | 1.6 | 0.00 | 0.00 | 0.00 | 91 | 1013.9 |
| 20260509110522 | 9 | 227 | 3.2 | 3.2 | 0.00 | 0.00 | 0.00 | 89 | 1013.7 |
| 20260509110019 | 9 | 155 | 0.0 | 0.0 | 0.00 | 0.00 | 0.00 | 88 | 1013.8 |
| 20260509105518 | 9 | 155 | 0.0 | 0.0 | 0.00 | 0.00 | 0.00 | 90 | 1013.5 |
| 20260509105015 | 9 | 158 | 0.0 | 3.2 | 0.00 | 0.00 | 0.00 | 90 | 1013.3 |
| 20260509104512 | 9 | 54 | 3.2 | 3.2 | 0.00 | 0.00 | 0.00 | 90 | 1013.2 |
| 20260509104009 | 9 | 76 | 1.6 | 3.2 | 0.00 | 0.00 | 0.00 | 90 | 1013.2 |
| 20260509103507 | 9 | 207 | 0.0 | 0.0 | 0.00 | 0.00 | 0.00 | 90 | 1013.3 |
| 20260509103004 | 10 | 208 | 0.0 | 0.0 | 0.00 | 0.00 | 0.00 | 89 | 1013.0 |
| 20260509102501 | 10 | 208 | 0.0 | 0.0 | 0.00 | 0.00 | 0.00 | 89 | 1013.0 |
| 20260509101958 | 10 | 208 | 0.0 | 0.0 | 0.00 | 0.00 | 0.00 | 86 | 1013.1 |
| 20260509101454 | 10 | 208 | 1.6 | 3.2 | 0.00 | 0.00 | 0.00 | 88 | 1013.0 |
| 20260509100951 | 9 | 225 | 1.6 | 3.2 | 0.00 | 0.00 | 0.00 | 89 | 1013.2 |
| 20260509100449 | 8 | 221 | 1.6 | 1.6 | 0.00 | 0.00 | 0.00 | 90 | 1013.2 |
| 20260509095945 | 9 | 216 | 3.2 | 3.2 | 0.00 | 0.00 | 0.00 | 89 | 1013.1 |
| 20260509095442 | 10 | 231 | 3.2 | 3.2 | 0.00 | 0.00 | 0.00 | 89 | 1013.3 |
| 20260509094939 | 10 | 224 | 3.2 | 3.2 | 0.00 | 0.00 | 0.00 | 88 | 1013.0 |
| 20260509094436 | 10 | 217 | 0.0 | 0.0 | 0.00 | 0.00 | 0.00 | 86 | 1013.3 |
| 20260509093933 | 9 | 215 | 0.0 | 0.0 | 0.00 | 0.00 | 0.00 | 86 | 1012.9 |
| 20260509093431 | 9 | 215 | 0.0 | 0.0 | 0.00 | 0.00 | 0.00 | 87 | 1013.1 |
| 20260509092929 | 9 | 215 | 0.0 | 0.0 | 0.00 | 0.00 | 0.00 | 87 | 1012.9 |
| 20260509092426 | 9 | 194 | 0.0 | 0.0 | 0.00 | 0.00 | 0.00 | 87 | 1012.9 |
| 20260509091925 | 9 | 194 | 0.0 | 0.0 | 0.00 | 0.00 | 0.00 | 86 | 1012.9 |
| 20260509091421 | 9 | 194 | 0.0 | 0.0 | 0.00 | 0.00 | 0.00 | 85 | 1012.9 |
| 20260509090918 | 8 | 194 | 0.0 | 0.0 | 0.00 | 0.00 | 0.00 | 85 | 1012.8 |
| 20260509090415 | 9 | 194 | 0.0 | 0.0 | 0.00 | 0.00 | 0.00 | 85 | 1012.9 |
| 20260509085913 | 8 | 194 | 0.0 | 0.0 | 0.00 | 0.00 | 0.00 | 86 | 1012.9 |
| 20260509085410 | 8 | 194 | 0.0 | 0.0 | 0.00 | 0.00 | 0.00 | 86 | 1012.9 |
| 20260509084906 | 8 | 194 | 0.0 | 0.0 | 0.00 | 0.00 | 0.00 | 87 | 1012.8 |
| 20260509084403 | 8 | 194 | 0.0 | 0.0 | 0.00 | 0.00 | 0.00 | 85 | 1012.8 |
| 20260509083901 | 8 | 196 | 0.0 | 0.0 | 0.00 | 0.00 | 0.00 | 86 | 1012.8 |
| 20260509083358 | 9 | 196 | 0.0 | 0.0 | 0.00 | 0.00 | 0.00 | 86 | 1013.0 |
| 20260509082854 | 8 | 195 | 0.0 | 0.0 | 0.00 | 0.00 | 0.00 | 83 | 1012.8 |
| 20260509082351 | 8 | 195 | 0.0 | 0.0 | 0.00 | 0.00 | 0.00 | 84 | 1012.9 |
| 20260509081848 | 8 | 195 | 0.0 | 0.0 | 0.00 | 0.00 | 0.00 | 84 | 1013.2 |
| 20260509081345 | 9 | 195 | 0.0 | 0.0 | 0.00 | 0.00 | 0.00 | 82 | 1013.1 |
| 20260509080843 | 8 | 195 | 0.0 | 0.0 | 0.00 | 0.00 | 0.00 | 84 | 1013.0 |
| 20260509080341 | 9 | 198 | 0.0 | 0.0 | 0.00 | 0.00 | 0.00 | 85 | 1013.2 |
| 20260509075839 | 9 | 211 | 0.0 | 0.0 | 0.00 | 0.00 | 0.00 | 85 | 1013.2 |
| 20260509075336 | 9 | 211 | 0.0 | 0.0 | 0.00 | 0.00 | 0.00 | 82 | 1013.1 |
| 20260509074833 | 9 | 210 | 0.0 | 0.0 | 0.00 | 0.00 | 0.00 | 80 | 1013.3 |
| 20260509074331 | 8 | 211 | 0.0 | 0.0 | 0.00 | 0.00 | 0.00 | 82 | 1013.0 |
| 20260509073826 | 8 | 226 | 0.0 | 0.0 | 0.00 | 0.00 | 0.00 | 83 | 1013.2 |
| 20260509073323 | 8 | 228 | 0.0 | 0.0 | 0.00 | 0.00 | 0.00 | 84 | 1013.3 |
| 20260509072820 | 8 | 228 | 0.0 | 0.0 | 0.00 | 0.00 | 0.00 | 84 | 1013.2 |
| 20260509072316 | 9 | 226 | 1.6 | 1.6 | 0.00 | 0.00 | 0.00 | 84 | 1013.1 |
| 20260509071813 | 8 | 227 | 0.0 | 0.0 | 0.00 | 0.00 | 0.00 | 82 | 1013.1 |
| 20260509071310 | 9 | 227 | 0.0 | 0.0 | 0.00 | 0.00 | 0.00 | 84 | 1013.0 |
| 20260509070807 | 9 | 227 | 0.0 | 0.0 | 0.00 | 0.00 | 0.00 | 82 | 1013.2 |
| 20260509070303 | 9 | 227 | 0.0 | 0.0 | 0.00 | 0.00 | 0.00 | 81 | 1013.0 |
| 20260509065800 | 9 | 227 | 0.0 | 1.6 | 0.00 | 0.00 | 0.00 | 85 | 1013.4 |
| 20260509065256 | 9 | 223 | 1.6 | 3.2 | 0.00 | 0.00 | 0.00 | 84 | 1013.1 |
| 20260509064752 | 9 | 94 | 0.0 | 0.0 | 0.00 | 0.00 | 0.00 | 81 | 1013.3 |
| 20260509064250 | 9 | 94 | 0.0 | 0.0 | 0.00 | 0.00 | 0.00 | 81 | 1013.2 |
| 20260509063748 | 9 | 88 | 0.0 | 0.0 | 0.00 | 0.00 | 0.00 | 80 | 1013.3 |
| 20260509063243 | 9 | 88 | 0.0 | 0.0 | 0.00 | 0.00 | 0.00 | 79 | 1013.3 |
| 20260509062741 | 9 | 99 | 0.0 | 0.0 | 0.00 | 0.00 | 0.00 | 80 | 1013.3 |
| 20260509062238 | 9 | 99 | 0.0 | 0.0 | 0.00 | 0.00 | 0.00 | 80 | 1013.3 |
| 20260509061735 | 10 | 99 | 0.0 | 0.0 | 0.00 | 0.00 | 0.00 | 77 | 1013.4 |
| 20260509061233 | 10 | 99 | 0.0 | 0.0 | 0.00 | 0.00 | 0.00 | 77 | 1013.3 |
| 20260509060730 | 10 | 99 | 0.0 | 0.0 | 0.00 | 0.00 | 0.00 | 76 | 1013.1 |
| 20260509060226 | 10 | 99 | 0.0 | 0.0 | 0.00 | 0.00 | 0.00 | 77 | 1013.3 |
| 20260509055722 | 9 | 99 | 0.0 | 0.0 | 0.00 | 0.00 | 0.00 | 77 | 1013.2 |
| 20260509055218 | 9 | 99 | 0.0 | 0.0 | 0.00 | 0.00 | 0.00 | 78 | 1013.1 |
| 20260509054715 | 9 | 98 | 0.0 | 0.0 | 0.00 | 0.00 | 0.00 | 80 | 1013.3 |
| 20260509054212 | 9 | 98 | 0.0 | 0.0 | 0.00 | 0.00 | 0.00 | 80 | 1013.4 |
| 20260509053710 | 9 | 98 | 0.0 | 0.0 | 0.00 | 0.00 | 0.00 | 81 | 1013.2 |
| 20260509053207 | 9 | 98 | 0.0 | 0.0 | 0.00 | 0.00 | 0.00 | 79 | 1013.4 |
| 20260509052705 | 10 | 104 | 0.0 | 0.0 | 0.00 | 0.00 | 0.00 | 78 | 1013.5 |
| 20260509052202 | 10 | 103 | 0.0 | 0.0 | 0.00 | 0.00 | 0.00 | 80 | 1013.6 |
| 20260509051700 | 10 | 216 | 0.0 | 1.6 | 0.00 | 0.00 | 0.00 | 77 | 1013.5 |
| 20260509051157 | 10 | 216 | 1.6 | 3.2 | 0.00 | 0.00 | 0.00 | 77 | 1013.7 |
| 20260509050654 | 10 | 219 | 1.6 | 1.6 | 0.00 | 0.00 | 0.00 | 78 | 1013.7 |
| 20260509050150 | 10 | 204 | 0.0 | 0.0 | 0.00 | 0.00 | 0.00 | 74 | 1013.7 |
| 20260509045648 | 10 | 204 | 0.0 | 0.0 | 0.00 | 0.00 | 0.00 | 74 | 1013.7 |
| 20260509045145 | 10 | 204 | 0.0 | 0.0 | 0.00 | 0.00 | 0.00 | 74 | 1013.6 |
| 20260509044642 | 10 | 202 | 1.6 | 1.6 | 0.00 | 0.00 | 0.00 | 75 | 1013.7 |
| 20260509044139 | 10 | 201 | 0.0 | 0.0 | 0.00 | 0.00 | 0.00 | 75 | 1013.8 |
| 20260509043635 | 10 | 77 | 0.0 | 0.0 | 0.00 | 0.00 | 0.00 | 71 | 1013.7 |
| 20260509043131 | 10 | 77 | 0.0 | 0.0 | 0.00 | 0.00 | 0.00 | 72 | 1013.7 |
| 20260509042628 | 10 | 77 | 0.0 | 0.0 | 0.00 | 0.00 | 0.00 | 75 | 1013.8 |
| 20260509042124 | 10 | 77 | 0.0 | 0.0 | 0.00 | 0.00 | 0.00 | 75 | 1013.5 |
| 20260509041621 | 10 | 67 | 3.2 | 3.2 | 0.00 | 0.00 | 0.00 | 76 | 1013.4 |
| 20260509041118 | 10 | 53 | 3.2 | 4.8 | 0.00 | 0.00 | 0.00 | 75 | 1013.5 |
| 20260509040617 | 10 | 87 | 1.6 | 3.2 | 0.00 | 0.00 | 0.00 | 75 | 1013.3 |
| 20260509040113 | 11 | 135 | 0.0 | 0.0 | 0.00 | 0.00 | 0.00 | 74 | 1013.3 |